EJU63LB EHAM-EGPF

Flight info

Callsign EJU63LB
Flight time 1h 7m
Altitude 36000
Route BERGI L602 SUPUR P1 GODOS DCT ROXAT DCT BAZNA DCT ANMAZ DCT EWOKE DCT AGPED
Aircraft A320/M-SDE2E3FGHIJ1RWXYZ/LB1

Departure

Time 2026-05-07 10:05
Airport Amsterdam Airport Schiphol (EHAM)

Arrival

Time 2026-05-07 11:12
Airport Glasgow Airport (EGPF)
Time Latitude Longitude Altitude Speed Heading
2026-05-07 09:35 52.31066 4.75572 -1 ft 0 kts 148°
2026-05-07 09:49 52.31069 4.75569 -1 ft 3 kts 148°
2026-05-07 09:49 52.31092 4.75546 -1 ft 4 kts 148°
2026-05-07 09:49 52.31115 4.75523 -1 ft 4 kts 148°
2026-05-07 09:50 52.31138 4.75499 -1 ft 4 kts 148°
2026-05-07 09:50 52.31142 4.75495 -1 ft 0 kts 148°
2026-05-07 09:53 52.31134 4.75498 -1 ft 3 kts 171°
2026-05-07 09:53 52.31133 4.75462 -1 ft 5 kts 325°
2026-05-07 09:53 52.31180 4.75464 -1 ft 9 kts 358°
2026-05-07 09:53 52.31254 4.75457 -1 ft 13 kts 356°
2026-05-07 09:54 52.31350 4.75448 -1 ft 15 kts 356°
2026-05-07 09:54 52.31458 4.75439 -1 ft 15 kts 357°
2026-05-07 09:54 52.31509 4.75337 -1 ft 14 kts 265°
2026-05-07 09:54 52.31502 4.75165 -1 ft 17 kts 267°
2026-05-07 09:55 52.31495 4.74940 -1 ft 22 kts 266°
2026-05-07 09:55 52.31485 4.74667 -1 ft 25 kts 267°
2026-05-07 09:55 52.31476 4.74391 -1 ft 18 kts 267°
2026-05-07 09:55 52.31468 4.74245 -1 ft 12 kts 256°
2026-05-07 09:56 52.31407 4.74144 -1 ft 16 kts 197°
2026-05-07 09:56 52.31291 4.74129 -1 ft 17 kts 183°
2026-05-07 09:56 52.31162 4.74116 -1 ft 20 kts 183°
2026-05-07 09:56 52.31015 4.74104 -1 ft 23 kts 183°
2026-05-07 09:57 52.30854 4.74088 -1 ft 24 kts 183°
2026-05-07 09:57 52.30683 4.74075 -1 ft 25 kts 182°
2026-05-07 09:57 52.30508 4.74060 -1 ft 19 kts 183°
2026-05-07 09:57 52.30409 4.74050 -1 ft 12 kts 183°
2026-05-07 09:58 52.30338 4.74025 -1 ft 7 kts 201°
2026-05-07 09:58 52.30313 4.74008 -1 ft 2 kts 201°
2026-05-07 09:58 52.30311 4.74007 -1 ft 0 kts 201°
2026-05-07 10:00 52.30305 4.74003 -1 ft 4 kts 201°
2026-05-07 10:00 52.30261 4.73964 -1 ft 10 kts 217°
2026-05-07 10:00 52.30223 4.73915 -1 ft 0 kts 218°
2026-05-07 10:02 52.30202 4.73886 -2 ft 8 kts 226°
2026-05-07 10:02 52.30186 4.73786 -2 ft 9 kts 276°
2026-05-07 10:02 52.30216 4.73738 -3 ft 7 kts
2026-05-07 10:03 52.30264 4.73742 -4 ft 5 kts
2026-05-07 10:03 52.30267 4.73743 -4 ft 0 kts
2026-05-07 10:04 52.30306 4.73746 -4 ft 19 kts
2026-05-07 10:04 52.30697 4.73781 -2 ft 90 kts
2026-05-07 10:05 52.31531 4.73856 -2 ft 146 kts
2026-05-07 10:05 52.32615 4.73965 445 ft 156 kts
2026-05-07 10:05 52.33695 4.73872 1159 ft 157 kts 349°
2026-05-07 10:05 52.34817 4.73408 1562 ft 178 kts 345°
2026-05-07 10:06 52.36076 4.72793 1910 ft 200 kts 343°
2026-05-07 10:06 52.37495 4.72083 2288 ft 226 kts 344°
2026-05-07 10:06 52.39074 4.71280 2839 ft 248 kts 344°
2026-05-07 10:06 52.40744 4.70419 3668 ft 254 kts 343°
2026-05-07 10:07 52.42425 4.69561 4653 ft 258 kts 343°
2026-05-07 10:07 52.44146 4.68705 5573 ft 261 kts 343°
2026-05-07 10:07 52.45913 4.67868 6455 ft 267 kts 343°
2026-05-07 10:07 52.47715 4.67033 7268 ft 272 kts 343°
2026-05-07 10:08 52.49552 4.66188 8119 ft 276 kts 343°
2026-05-07 10:08 52.51419 4.65336 8971 ft 280 kts 344°
2026-05-07 10:08 52.53314 4.64463 9806 ft 285 kts 344°
2026-05-07 10:08 52.54587 4.63875 10272 ft 291 kts 343°
2026-05-07 10:09 52.57333 4.62604 10657 ft 320 kts 343°
2026-05-07 10:09 52.58798 4.61926 11051 ft 326 kts 343°
2026-05-07 10:09 52.60971 4.60926 11780 ft 331 kts 343°
2026-05-07 10:09 52.63224 4.59888 12559 ft 334 kts 344°
2026-05-07 10:10 52.65448 4.58856 13310 ft 337 kts 343°
2026-05-07 10:10 52.67748 4.57796 14070 ft 340 kts 343°
2026-05-07 10:10 52.70034 4.56749 14743 ft 343 kts 343°
2026-05-07 10:10 52.72319 4.55706 15374 ft 347 kts 343°
2026-05-07 10:11 52.74655 4.54635 15993 ft 351 kts 343°
2026-05-07 10:11 52.77017 4.53554 16631 ft 354 kts 343°
2026-05-07 10:11 52.79355 4.52497 17257 ft 357 kts 343°
2026-05-07 10:11 52.81731 4.51424 17860 ft 361 kts 343°
2026-05-07 10:12 52.84165 4.50320 18456 ft 365 kts 343°
2026-05-07 10:12 52.86571 4.48957 18997 ft 367 kts 332°
2026-05-07 10:12 52.88650 4.46508 19519 ft 369 kts 313°
2026-05-07 10:12 52.90170 4.43097 20079 ft 370 kts 300°
2026-05-07 10:13 52.91483 4.39409 20628 ft 373 kts 300°
2026-05-07 10:13 52.92811 4.35633 21177 ft 376 kts 300°
2026-05-07 10:13 52.94113 4.31909 21700 ft 380 kts 300°
2026-05-07 10:13 52.95438 4.28115 22236 ft 383 kts 300°
2026-05-07 10:14 52.96789 4.24261 22743 ft 387 kts 300°
2026-05-07 10:14 52.98171 4.20324 23261 ft 391 kts 300°
2026-05-07 10:14 52.99545 4.16408 23761 ft 395 kts 300°
2026-05-07 10:14 53.00929 4.12451 24181 ft 398 kts 300°
2026-05-07 10:15 53.02322 4.08461 24596 ft 401 kts 300°
2026-05-07 10:15 53.03705 4.04494 25006 ft 403 kts 301°
2026-05-07 10:15 53.05135 4.00396 25405 ft 406 kts 301°
2026-05-07 10:15 53.06538 3.96376 25798 ft 409 kts 301°
2026-05-07 10:16 53.07971 3.92264 26190 ft 412 kts 301°
2026-05-07 10:16 53.09408 3.88129 26569 ft 414 kts 301°
2026-05-07 10:16 53.10871 3.83912 26960 ft 416 kts 301°
2026-05-07 10:16 53.12319 3.79729 27335 ft 419 kts 301°
2026-05-07 10:17 53.13775 3.75507 27707 ft 421 kts 301°
2026-05-07 10:17 53.15235 3.71267 28070 ft 423 kts 301°
2026-05-07 10:17 53.16702 3.66999 28434 ft 425 kts 301°
2026-05-07 10:17 53.18172 3.62710 28776 ft 428 kts 301°
2026-05-07 10:18 53.19650 3.58386 29117 ft 430 kts 301°
2026-05-07 10:18 53.21114 3.54103 29449 ft 432 kts 301°
2026-05-07 10:18 53.22603 3.49742 29787 ft 434 kts 301°
2026-05-07 10:18 53.24100 3.45347 30115 ft 436 kts 301°
2026-05-07 10:19 53.25615 3.40956 30386 ft 438 kts 302°
2026-05-07 10:19 53.27213 3.36616 30644 ft 439 kts 304°
2026-05-07 10:19 53.28874 3.32322 30897 ft 441 kts 305°
2026-05-07 10:19 53.30572 3.28033 31139 ft 442 kts 305°
2026-05-07 10:20 53.32278 3.23739 31378 ft 444 kts 305°
2026-05-07 10:20 53.33978 3.19416 31642 ft 445 kts 305°
2026-05-07 10:20 53.35662 3.15065 31977 ft 445 kts 304°
2026-05-07 10:20 53.37324 3.10710 32303 ft 444 kts 304°
2026-05-07 10:21 53.38978 3.06340 32630 ft 444 kts 304°
2026-05-07 10:21 53.40627 3.01978 32939 ft 443 kts 304°
2026-05-07 10:21 53.42463 2.97841 33246 ft 441 kts 313°
2026-05-07 10:21 53.44457 2.93939 33555 ft 441 kts 313°
2026-05-07 10:22 53.46459 2.90040 33879 ft 441 kts 313°
2026-05-07 10:22 53.48461 2.86142 34190 ft 440 kts 313°
2026-05-07 10:22 53.50460 2.82244 34455 ft 440 kts 313°
2026-05-07 10:22 53.52454 2.78349 34713 ft 440 kts 312°
2026-05-07 10:23 53.54445 2.74441 34956 ft 440 kts 312°
2026-05-07 10:23 53.56428 2.70535 35197 ft 440 kts 311°
2026-05-07 10:23 53.58411 2.66619 35440 ft 439 kts 311°
2026-05-07 10:23 53.60396 2.62699 35670 ft 439 kts 311°
2026-05-07 10:24 53.62379 2.58779 35891 ft 439 kts 311°
2026-05-07 10:24 53.64359 2.54857 36075 ft 440 kts 311°
2026-05-07 10:24 53.66331 2.50945 36115 ft 436 kts 311°
2026-05-07 10:25 53.70242 2.43169 36116 ft 434 kts 311°
2026-05-07 10:25 53.74139 2.35410 36116 ft 432 kts 311°
2026-05-07 10:26 53.78009 2.27654 36121 ft 431 kts 311°
2026-05-07 10:26 53.81875 2.19890 36122 ft 431 kts 311°
2026-05-07 10:27 53.85737 2.12125 36122 ft 431 kts 311°
2026-05-07 10:27 53.89595 2.04343 36122 ft 431 kts 311°
2026-05-07 10:28 53.93445 1.96541 36120 ft 431 kts 310°
2026-05-07 10:28 53.97293 1.88720 36119 ft 431 kts 310°
2026-05-07 10:29 54.01126 1.80892 36123 ft 431 kts 310°
2026-05-07 10:29 54.04962 1.73035 36123 ft 431 kts 310°
2026-05-07 10:30 54.10703 1.61243 36123 ft 431 kts 310°
2026-05-07 10:30 54.14521 1.53386 36125 ft 431 kts 309°
2026-05-07 10:31 54.18278 1.45417 36123 ft 430 kts 303°
2026-05-07 10:31 54.21078 1.36425 36119 ft 430 kts 296°
2026-05-07 10:32 54.23718 1.27254 36113 ft 430 kts 296°
2026-05-07 10:32 54.26357 1.18079 36124 ft 429 kts 296°
2026-05-07 10:33 54.28980 1.08887 36113 ft 433 kts 295°
2026-05-07 10:33 54.31647 0.99515 36118 ft 443 kts 295°
2026-05-07 10:34 54.34364 0.89935 36117 ft 450 kts 295°
2026-05-07 10:34 54.37111 0.80219 36112 ft 455 kts 295°
2026-05-07 10:35 54.39875 0.70405 36112 ft 458 kts 295°
2026-05-07 10:35 54.42627 0.60566 36108 ft 457 kts 295°
2026-05-07 10:36 54.45375 0.50697 36110 ft 458 kts 295°
2026-05-07 10:36 54.48121 0.40806 36106 ft 459 kts 294°
2026-05-07 10:37 54.50866 0.30902 36114 ft 459 kts 295°
2026-05-07 10:37 54.53599 0.20983 36113 ft 458 kts 294°
2026-05-07 10:38 54.56256 0.11303 36093 ft 435 kts 294°
2026-05-07 10:38 54.58981 0.02053 36097 ft 428 kts 297°
2026-05-07 10:39 54.61750 -0.06971 36093 ft 429 kts 296°
2026-05-07 10:39 54.64515 -0.16101 36093 ft 429 kts 295°
2026-05-07 10:40 54.67254 -0.25345 36092 ft 430 kts 296°
2026-05-07 10:40 54.69968 -0.34558 36091 ft 430 kts 295°
2026-05-07 10:41 54.72677 -0.43772 36083 ft 430 kts 295°
2026-05-07 10:41 54.75386 -0.52990 36087 ft 429 kts 295°
2026-05-07 10:42 54.78079 -0.62208 36093 ft 429 kts 295°
2026-05-07 10:42 54.80760 -0.71420 36085 ft 428 kts 294°
2026-05-07 10:43 54.83434 -0.80641 36085 ft 427 kts 295°
2026-05-07 10:43 54.86087 -0.89851 36075 ft 427 kts 295°
2026-05-07 10:44 54.88736 -0.99078 36054 ft 428 kts 294°
2026-05-07 10:44 54.90063 -1.03706 35782 ft 427 kts 294°
2026-05-07 10:44 54.91378 -1.08297 35318 ft 423 kts 295°
2026-05-07 10:45 54.92681 -1.12851 34802 ft 419 kts 294°
2026-05-07 10:45 54.93957 -1.17325 34296 ft 417 kts 295°
2026-05-07 10:45 54.95255 -1.21895 33737 ft 414 kts 295°
2026-05-07 10:45 54.96478 -1.26403 33223 ft 410 kts 292°
2026-05-07 10:46 54.97597 -1.30955 32721 ft 406 kts 291°
2026-05-07 10:46 54.98641 -1.35498 32219 ft 403 kts 290°
2026-05-07 10:46 54.99653 -1.40027 31731 ft 399 kts 289°
2026-05-07 10:46 55.00653 -1.44508 31256 ft 396 kts 289°
2026-05-07 10:47 55.01319 -1.47471 30939 ft 394 kts 290°
2026-05-07 10:47 55.02325 -1.51901 30466 ft 391 kts 289°
2026-05-07 10:47 55.03669 -1.57754 29813 ft 387 kts 290°
2026-05-07 10:47 55.04334 -1.60628 29516 ft 383 kts 290°
2026-05-07 10:48 55.05324 -1.64907 29090 ft 379 kts 290°
2026-05-07 10:48 55.06304 -1.69141 28658 ft 374 kts 290°
2026-05-07 10:48 55.07270 -1.73328 28244 ft 372 kts 290°
2026-05-07 10:48 55.08262 -1.77671 27812 ft 397 kts 290°
2026-05-07 10:49 55.09316 -1.82301 27328 ft 420 kts 290°
2026-05-07 10:49 55.10404 -1.87088 26846 ft 427 kts 290°
2026-05-07 10:49 55.11504 -1.91910 26332 ft 427 kts 290°
2026-05-07 10:49 55.12752 -1.96605 26039 ft 427 kts 298°
2026-05-07 10:50 55.14236 -2.01082 26016 ft 427 kts 298°
2026-05-07 10:50 55.15728 -2.05585 26017 ft 427 kts 298°
2026-05-07 10:50 55.17212 -2.10078 26016 ft 427 kts 298°
2026-05-07 10:50 55.18694 -2.14595 26015 ft 427 kts 298°
2026-05-07 10:51 55.20172 -2.19116 26014 ft 427 kts 298°
2026-05-07 10:51 55.21650 -2.23636 26009 ft 428 kts 298°
2026-05-07 10:51 55.23129 -2.28160 26008 ft 428 kts 297°
2026-05-07 10:51 55.24609 -2.32705 26017 ft 429 kts 297°
2026-05-07 10:52 55.26081 -2.37235 26005 ft 427 kts 297°
2026-05-07 10:52 55.27550 -2.41757 25992 ft 426 kts 297°
2026-05-07 10:52 55.29004 -2.46236 25445 ft 420 kts 297°
2026-05-07 10:52 55.30445 -2.50684 24808 ft 417 kts 297°
2026-05-07 10:53 55.31871 -2.55093 24185 ft 414 kts 297°
2026-05-07 10:53 55.33282 -2.59464 23585 ft 411 kts 297°
2026-05-07 10:53 55.34685 -2.63820 22911 ft 407 kts 297°
2026-05-07 10:53 55.36070 -2.68130 22287 ft 403 kts 297°
2026-05-07 10:54 55.37439 -2.72406 21702 ft 399 kts 297°
2026-05-07 10:54 55.38793 -2.76641 21145 ft 395 kts 297°
2026-05-07 10:54 55.40132 -2.80833 20606 ft 391 kts 296°
2026-05-07 10:54 55.41459 -2.84995 20134 ft 388 kts 296°
2026-05-07 10:55 55.42778 -2.89131 19960 ft 387 kts 296°
2026-05-07 10:55 55.44093 -2.93261 19984 ft 387 kts 296°
2026-05-07 10:55 55.45372 -2.97438 19985 ft 387 kts 294°
2026-05-07 10:55 55.46550 -3.01681 19672 ft 383 kts 292°
2026-05-07 10:56 55.47656 -3.05945 19149 ft 380 kts 291°
2026-05-07 10:56 55.48722 -3.10199 18657 ft 378 kts 291°
2026-05-07 10:56 55.49773 -3.14413 18194 ft 373 kts 291°
2026-05-07 10:56 55.50823 -3.18581 17659 ft 370 kts 291°
2026-05-07 10:57 55.51864 -3.22649 17412 ft 352 kts 291°
2026-05-07 10:57 55.52845 -3.26434 17278 ft 327 kts 291°
2026-05-07 10:57 55.53771 -3.29993 17065 ft 314 kts 291°
2026-05-07 10:57 55.54669 -3.33459 16807 ft 308 kts 291°
2026-05-07 10:58 55.55552 -3.36891 16469 ft 306 kts 290°
2026-05-07 10:58 55.56428 -3.40304 16092 ft 304 kts 290°
2026-05-07 10:58 55.57298 -3.43702 15710 ft 303 kts 290°
2026-05-07 10:58 55.58165 -3.47093 15338 ft 302 kts 290°
2026-05-07 10:59 55.59032 -3.50477 14974 ft 301 kts 290°
2026-05-07 10:59 55.59883 -3.53802 14630 ft 301 kts 290°
2026-05-07 10:59 55.60743 -3.57171 14285 ft 300 kts 289°
2026-05-07 10:59 55.61595 -3.60520 13950 ft 298 kts 289°
2026-05-07 11:00 55.62444 -3.63860 13573 ft 298 kts 290°
2026-05-07 11:00 55.63291 -3.67197 13193 ft 296 kts 290°
2026-05-07 11:00 55.64136 -3.70514 12844 ft 294 kts 290°
2026-05-07 11:00 55.64974 -3.73804 12494 ft 292 kts 290°
2026-05-07 11:01 55.65805 -3.77067 12181 ft 289 kts 289°
2026-05-07 11:01 55.66625 -3.80299 11846 ft 286 kts 289°
2026-05-07 11:01 55.67434 -3.83508 11491 ft 284 kts 289°
2026-05-07 11:01 55.68234 -3.86700 11134 ft 282 kts 289°
2026-05-07 11:02 55.69028 -3.89871 10812 ft 280 kts 289°
2026-05-07 11:02 55.69815 -3.93006 10502 ft 277 kts 289°
2026-05-07 11:02 55.70677 -3.96083 10086 ft 283 kts 301°
2026-05-07 11:02 55.72162 -3.98432 9790 ft 293 kts 328°
2026-05-07 11:03 55.74104 -3.99593 9583 ft 293 kts 343°
2026-05-07 11:03 55.76058 -4.00371 9444 ft 283 kts 344°
2026-05-07 11:03 55.77954 -4.01082 9302 ft 273 kts 344°
2026-05-07 11:03 55.79795 -4.01755 9085 ft 267 kts 344°
2026-05-07 11:04 55.81609 -4.02415 8815 ft 265 kts 344°
2026-05-07 11:04 55.83410 -4.03067 8533 ft 263 kts 344°
2026-05-07 11:04 55.85201 -4.03711 8192 ft 262 kts 344°
2026-05-07 11:04 55.86987 -4.04350 7845 ft 261 kts 344°
2026-05-07 11:05 55.88764 -4.04985 7508 ft 260 kts 344°
2026-05-07 11:05 55.90536 -4.05617 7176 ft 259 kts 344°
2026-05-07 11:05 55.92298 -4.06244 6850 ft 257 kts 344°
2026-05-07 11:05 55.94044 -4.06865 6522 ft 256 kts 344°
2026-05-07 11:06 55.95785 -4.07480 6193 ft 254 kts 344°
2026-05-07 11:06 55.97516 -4.08088 5789 ft 252 kts 344°
2026-05-07 11:06 55.99161 -4.08981 5269 ft 242 kts 322°
2026-05-07 11:06 56.00230 -4.10993 5054 ft 210 kts 287°
2026-05-07 11:07 56.00447 -4.13338 4937 ft 181 kts 260°
2026-05-07 11:07 56.00298 -4.15484 4667 ft 170 kts 255°
2026-05-07 11:07 56.00094 -4.17556 4194 ft 169 kts 254°
2026-05-07 11:07 55.99757 -4.19539 3726 ft 166 kts 237°
2026-05-07 11:08 55.99020 -4.21096 3379 ft 164 kts 225°
2026-05-07 11:08 55.98227 -4.22593 3098 ft 165 kts 225°
2026-05-07 11:08 55.97447 -4.24066 2858 ft 162 kts 224°
2026-05-07 11:08 55.96677 -4.25519 2619 ft 161 kts 224°
2026-05-07 11:09 55.95910 -4.26964 2418 ft 159 kts 223°
2026-05-07 11:09 55.95148 -4.28399 2194 ft 159 kts 224°
2026-05-07 11:09 55.94395 -4.29815 1974 ft 160 kts 224°
2026-05-07 11:09 55.93623 -4.31266 1755 ft 161 kts 224°
2026-05-07 11:10 55.92868 -4.32686 1523 ft 154 kts 223°
2026-05-07 11:10 55.92151 -4.34035 1315 ft 145 kts 223°
2026-05-07 11:10 55.91457 -4.35337 1122 ft 143 kts 222°
2026-05-07 11:10 55.90797 -4.36576 945 ft 132 kts 221°
2026-05-07 11:11 55.90168 -4.37756 755 ft 131 kts 221°
2026-05-07 11:11 55.89548 -4.38917 577 ft 129 kts 222°
2026-05-07 11:11 55.88935 -4.40064 399 ft 127 kts 221°
2026-05-07 11:11 55.88329 -4.41218 233 ft 128 kts 220°
2026-05-07 11:12 55.87724 -4.42353 43 ft 127 kts 221°
2026-05-07 11:12 55.87169 -4.43387 30 ft 97 kts 226°
2026-05-07 11:12 55.86820 -4.44027 29 ft 47 kts 226°
2026-05-07 11:12 55.86670 -4.44303 29 ft 23 kts 225°
2026-05-07 11:13 55.86546 -4.44467 29 ft 21 kts 209°
2026-05-07 11:13 55.86420 -4.44542 29 ft 11 kts 188°
2026-05-07 11:13 55.86363 -4.44482 29 ft 10 kts 101°
2026-05-07 11:13 55.86398 -4.44382 29 ft 9 kts 46°
2026-05-07 11:14 55.86441 -4.44304 29 ft 8 kts 46°
2026-05-07 11:14 55.86478 -4.44235 29 ft 7 kts 46°
2026-05-07 11:14 55.86512 -4.44171 29 ft 9 kts 46°
2026-05-07 11:14 55.86557 -4.44087 29 ft 9 kts 47°
2026-05-07 11:15 55.86536 -4.44018 29 ft 8 kts 153°
2026-05-07 11:15 55.86478 -4.43964 29 ft 11 kts 151°
2026-05-07 11:15 55.86413 -4.43903 29 ft 6 kts 152°
2026-05-07 11:15 55.86391 -4.43848 29 ft 6 kts 85°
2026-05-07 11:16 55.86411 -4.43785 29 ft 7 kts 59°
2026-05-07 11:16 55.86423 -4.43746 29 ft 2 kts 62°
2026-05-07 11:16 55.86426 -4.43738 29 ft 0 kts 62°
2026-05-07 11:19 55.86426 -4.43737 29 ft 0 kts 62°